Location: Conover
(35.7170°N, 81.2250°W)
Time: 02:48:12
(UTC-04:00)

Daily predictions for brighter satellites

Satellite Brightness Start Highest point End
(mag) Time Altitude Azimuth Time Altitude Azimuth Time Altitude Azimuth
Cosmos 1932 4.4 00:06:32 81° NNW 00:06:32 81° NNW 00:12:36 10° NNE
Cosmos 2369 Rocket 3.2 00:08:35 10° NW 00:13:08 36° W 00:13:08 36° W
Cosmos 1953 4.4 00:11:42 10° NNW 00:13:33 26° NNW 00:13:33 26° NNW
Cosmos 1607 4.3 00:23:14 56° NE 00:23:14 56° NE 00:28:08 10° NNE
Lacrosse 4 Rocket 4.0 00:31:19 16° WNW 00:31:27 16° NW 00:33:59 10° NNW
COSMOS 2406 3.7 00:32:43 59° NNW 00:32:43 59° NNW 00:37:37 10° NNE
Terra 4.0 00:35:13 18° WNW 00:35:13 18° WNW 00:37:32 10° NW
ALOS 2 4.5 00:42:00 27° NNE 00:42:00 27° NNE 00:44:12 10° N
Cosmos 2082 Rocket 4.3 01:01:19 16° ENE 01:01:19 16° ENE 01:03:04 10° NE
CZ-4C R/B 3.3 01:07:58 38° NE 01:07:58 38° NE 01:11:34 10° NE
Meteor 1-24 Rocket 4.3 01:08:02 59° NNE 01:08:02 59° NNE 01:12:49 10° N
Cosmos 1655 Rocket 4.3 01:09:33 64° NW 01:09:33 64° NW 01:15:01 10° N
S3M 4.3 01:06:41 10° N 01:11:58 60° NE 01:11:58 60° NE
NOSS 3-2 (A) 3.8 01:16:20 63° NNE 01:16:20 63° NNE 01:21:46 10° NNE
Cosmos 1943 Rocket 4.1 01:21:34 10° NW 01:23:46 19° WNW 01:23:46 19° WNW
Cosmos 2344 3.6 01:38:02 68° ESE 01:38:02 68° ESE 01:46:09 10° NE
CZ-2C R/B 4.2 01:39:23 40° NE 01:39:23 40° NE 01:44:00 10° N
USA 215 4.0 01:43:16 10° NE 01:47:54 39° E 01:47:54 39° E
CZ-2C R/B 3.3 01:49:07 10° N 01:53:23 53° N 01:53:23 53° N
Cosmos 2369 4.3 01:55:03 10° NNW 01:59:26 54° N 01:59:26 54° N
Cosmos 841 Rocket 4.3 02:07:34 10° NNW 02:11:28 49° N 02:11:28 49° N
NOSS 3-3 (A) 4.3 02:07:36 10° NW 02:15:02 76° WSW 02:15:02 76° WSW
NOSS 3-3 (C) 4.3 02:07:44 10° NW 02:15:12 77° WSW 02:15:12 77° WSW
Lacrosse 5 4.4 02:12:57 10° N 02:16:28 18° NNE 02:19:57 10° ENE
NOSS 3-2 (C) 4.4 02:19:35 36° WNW 02:20:21 37° NW 02:26:28 10° NNE
CENTAUR R/B 2.9 02:24:16 53° E 02:24:16 53° E 02:30:02 10° NE
Cosmos 1980 Rocket 3.8 02:23:53 10° N 02:28:48 30° ENE 02:31:05 23° E
Cosmos 2082 Rocket 2.9 02:43:09 45° NW 02:43:09 45° NW 02:48:09 10° N
ERS-2 4.4 02:40:33 10° NNE 02:42:12 23° NE 02:42:12 23° NE
Cosmos 2315 Rocket 4.2 02:39:50 10° NNW 02:45:31 58° WNW 02:45:31 58° WNW
NPP 4.2 02:42:30 10° NNE 02:47:32 48° E 02:47:32 48° E
Aureole 1 Rocket 3.8 02:44:57 10° NNW 02:49:24 68° NE 02:49:24 68° NE
Cosmos 1697 Rocket 2.7 02:44:47 10° NNW 02:50:19 76° NE 02:50:19 76° NE
CZ-4C R/B 4.2 02:53:07 15° WNW 02:55:02 18° NW 02:59:01 10° N
Cosmos 1833 Rocket 3.3 02:56:30 47° NW 02:56:30 47° NW 03:01:40 10° N
Cosmos 1745 Rocket 3.9 02:57:59 72° SSE 02:58:34 79° E 03:04:57 10° N
ASTEX 1 4.3 02:53:51 10° N 02:57:30 39° NW 02:57:30 39° NW
ARIANE 5 R/B 4.4 03:00:25 10° NE 03:04:09 20° E 03:05:27 18° ESE
Meteor 1-27 4.2 03:01:52 10° N 03:07:45 85° E 03:08:08 78° SSE
ATLAS 5 CENTAUR R/B 4.0 03:08:54 14° ESE 03:09:17 14° ESE 03:11:57 10° ENE
Nadezhda 1 Rocket 4.1 03:04:03 10° N 03:10:12 70° E 03:11:30 54° SE
AQUA 4.1 03:05:54 10° NNE 03:10:19 62° ENE 03:10:19 62° ENE
H-2A R/B 2.5 03:15:26 61° SSE 03:15:26 61° SSE 03:30:47 10° E
Cosmos 2058 4.5 03:19:43 28° NW 03:19:43 28° NW 03:22:10 10° N
Cosmos 1726 3.8 03:17:44 10° N 03:19:43 30° N 03:19:43 30° N
Sich 1 3.8 03:23:35 45° NW 03:23:35 45° NW 03:26:57 10° N
IRS-1C 4.1 03:18:56 10° NNE 03:24:16 72° ESE 03:24:53 65° SSE
Cosmos 1703 4.0 03:27:21 52° NNE 03:27:21 52° NNE 03:30:26 10° N
Cosmos 540 Rocket 3.6 03:21:45 10° NNW 03:26:15 59° WNW 03:26:15 59° WNW
SL-16 R/B 3.7 03:22:33 10° N 03:27:41 34° ENE 03:32:47 10° SE
USA 215 3.9 03:26:17 10° NNE 03:32:27 46° NW 03:35:15 30° W
SL-08 R/B 3.3 03:37:04 69° W 03:37:04 69° W 03:41:46 10° NNW
Cosmos 1626 2.9 03:37:58 48° ENE 03:37:58 48° ENE 03:41:19 10° NNE
Cosmos 1862 Rocket 4.1 03:34:57 10° N 03:39:22 56° E 03:40:18 45° SE
Cosmos 332 Rocket 3.8 03:35:03 10° NNW 03:39:27 65° WNW 03:39:27 65° WNW
Lacrosse 5 rocket 4.1 03:37:25 10° NNW 03:40:48 21° NE 03:44:15 10° E
Cosmos 2322 Rocket 3.1 03:36:13 10° N 03:41:39 48° ENE 03:47:02 10° SE
Resurs 1-4 Rocket 3.3 03:40:01 10° NNE 03:44:55 37° E 03:47:33 23° SSE
Cosmos 1271 Rocket 2.9 03:42:52 10° N 03:46:34 64° ENE 03:46:34 64° ENE
SEDSat Delta rocket 4.0 03:47:11 49° SW 03:48:42 60° S 03:55:12 10° E
OAO 3 Rocket 2.9 03:56:42 68° SW 03:57:06 74° S 04:01:49 10° E
Cosmos 968 Rocket 4.0 03:58:51 40° W 03:59:34 42° WNW 04:04:27 10° N
Lacrosse 5 1.7 03:54:54 10° NW 03:59:58 84° SW 04:05:01 10° SE
Cosmos 2181 Rocket 4.0 03:57:15 10° N 04:03:26 83° E 04:07:43 21° S
Spot 4 Rocket 4.2 04:04:58 10° N 04:10:01 57° WNW 04:11:28 42° SW
Cosmos 1980 Rocket 2.9 04:07:44 10° NW 04:12:44 33° WSW 04:12:46 33° WSW
Cosmos 2360 Rocket 4.0 04:08:38 10° N 04:13:36 31° ENE 04:18:33 10° ESE
Cosmos 1538 Rocket 4.2 04:08:51 10° NNW 04:13:52 48° WSW 04:15:04 40° SW
CENTAUR R/B 4.0 04:11:26 18° W 04:14:40 26° NW 04:20:16 10° NNE
Cosmos 923 Rocket 4.1 04:12:17 10° NNW 04:17:34 78° ENE 04:22:47 10° SSE
CZ-2D R/B 2.0 04:19:36 10° NNE 04:24:53 89° ESE 04:27:56 26° SSW
SL-16 R/B 2.5 04:20:32 10° SSE 04:26:48 85° WSW 04:33:06 10° NNW
Cosmos 1680 Rocket 3.7 04:22:34 10° NNW 04:27:47 73° ENE 04:32:58 10° SSE
USA 229 DEB 4.5 04:24:37 16° S 04:29:48 46° ESE 04:36:24 10° NE
USA 229 4.5 04:24:41 16° S 04:29:55 46° ESE 04:36:30 10° NE
Cosmos 371 Rocket 4.1 04:28:02 10° NW 04:32:14 30° W 04:32:38 29° WSW
H-2A ROCKET BODY 2.2 04:33:12 32° SSW 04:33:24 32° SSW 04:35:54 10° SE
Cosmos 1703 Rocket 3.5 04:29:38 10° N 04:34:01 88° E 04:37:30 16° S
OAO 1 Rocket 4.4 04:31:17 19° W 04:35:08 72° SSW 04:40:29 10° ESE
Cosmos 2074 Rocket 4.0 04:30:38 17° S 04:35:30 89° E 04:41:46 10° N
Cosmos 1346 3.3 04:35:20 47° W 04:35:31 48° W 04:38:30 10° N
Cosmos 2184 Rocket 4.0 04:32:54 16° S 04:38:11 90° ENE 04:44:34 10° N
Cosmos 773 Rocket 4.2 04:36:22 10° NNW 04:41:16 48° WSW 04:45:05 16° S
IRS-1D 4.0 04:36:12 10° N 04:41:20 48° WNW 04:44:11 24° SW
CZ-2D R/B 3.5 04:37:31 10° NNE 04:41:41 74° ESE 04:44:34 19° S
ARIANE 5 R/B 3.1 04:38:39 10° N 04:43:23 39° WNW 04:45:48 24° WSW
Cosmos 1455 3.4 04:40:29 10° NW 04:43:32 23° W 04:43:33 23° W
FALCON 9 R/B -0.1 04:48:00 56° SW 04:48:17 67° S 04:50:43 10° E
Cosmos 2292 Rocket 4.4 04:48:35 18° WNW 04:48:35 18° WNW 04:50:49 10° NNW
Meteor 1-4 Rocket 4.4 04:46:05 10° NW 04:48:17 17° W 04:48:17 17° W
Cosmos 2327 Rocket 4.4 04:44:13 17° SSW 04:49:02 71° W 04:55:13 10° N
Cosmos 1833 4.3 04:46:40 22° SW 04:50:29 67° WNW 04:56:13 10° NNE
Cosmos 304 Rocket 3.7 04:46:29 10° NNW 04:51:19 78° WSW 04:56:07 10° S
Cosmos 1869 4.5 04:48:25 10° NW 04:51:38 24° W 04:52:19 23° WSW
UNKNOWN OBJECT B 3.0 04:49:15 10° N 04:52:57 52° WNW 04:55:05 23° SW
ATLAS 5 CENTAUR R/B 2.1 04:50:28 23° SW 04:53:19 56° NW 04:58:25 10° NNE
ISS -0.5 04:51:17 10° NNW 04:53:54 22° NNE 04:56:30 10° E
MTI 4.3 04:53:54 26° SSW 04:55:19 40° W 04:58:31 10° NNW
Cosmos 1898 Rocket 3.6 04:51:32 13° S 04:56:10 74° ESE 05:01:20 10° NNE
Cosmos 1892 4.2 04:56:09 10° SSE 04:59:45 37° E 05:03:21 10° NNE
GPS 2-05 Rocket1 2.7 04:58:55 24° WSW 05:00:49 75° S 05:04:18 10° E
CZ-4B R/B 3.4 04:59:37 10° NNE 05:03:36 60° E 05:07:46 10° S
Okean O Rocket 1.6 04:59:54 10° N 05:04:20 73° WNW 05:08:20 12° SSW
Cosmos 2150 Rocket 4.0 05:00:25 13° SSW 05:05:07 86° WNW 05:10:30 10° NNE
Meteor 2-3 Rocket 3.8 05:00:42 10° S 05:06:27 90° E 05:12:17 10° N
Cosmos 1937 Rocket 3.9 05:02:13 10° S 05:07:28 67° ESE 05:12:44 10° NNE
ADEOS II 4.2 05:05:09 10° NE 05:09:27 25° E 05:13:44 10° SSE
Okean 1-7 3.1 05:05:33 10° NNW 05:09:51 57° W 05:14:07 10° S
SL-16 R/B 3.0 05:06:50 10° NW 05:11:38 29° WSW 05:16:25 10° SSW
Cosmos 1933 4.3 05:09:18 10° NNW 05:12:44 27° W 05:15:24 14° SW
GP-B 4.5 05:10:35 10° NNE 05:14:47 40° E 05:18:58 10° SSE
CZ-2C R/B 3.8 05:13:26 10° S 05:17:48 55° W 05:22:15 10° NNW
SL-24 DEB 4.5 05:15:23 10° N 05:19:55 52° W 05:24:23 10° SSW
Lacrosse 5 rocket 1.6 05:15:58 10° NW 05:20:21 55° SW 05:24:50 10° SSE
PSLV R/B 4.3 05:16:38 10° N 05:20:23 45° WNW 05:24:10 10° SSW
Cosmos 2112 Rocket 4.5 05:16:38 10° NW 05:21:25 39° WSW 05:26:11 10° SSW
Resurs 1-4 Rocket 3.4 05:20:19 10° NNW 05:24:31 24° WNW 05:28:38 10° WSW
Cosmos 2322 Rocket 3.5 05:21:20 10° NW 05:25:15 20° W 05:29:09 10° SW
Okean-O 3.0 05:22:44 10° NNE 05:27:10 65° ESE 05:31:33 10° S
SME Rocket 4.4 05:22:18 10° S 05:29:50 47° WSW 05:34:55 10° NNW
Cosmos 1782 4.0 05:31:07 10° N 05:35:01 48° E 05:38:52 10° SSE
SEDSat Delta rocket 4.2 05:28:37 10° W 05:35:10 53° S 05:41:16 10° ESE
Cosmos 2219 Rocket 4.1 05:32:27 10° N 05:37:35 36° ENE 05:42:39 10° SE
BREEZE-M DEB (TANK) 3.5 05:27:29 10° WSW 05:37:59 57° NW 05:41:16 10° NE
OAO 3 Rocket 3.1 05:35:54 10° W 05:40:36 78° S 05:45:21 10° ESE
PSLV R/B 3.8 05:38:21 10° NNE 05:42:45 75° ESE 05:47:06 10° S
Cosmos 2341 Rocket 4.1 05:39:22 10° SSW 05:45:35 66° W 05:51:55 10° N
